Temperature
22 23 23 23 27 28 27 27 28 28 28 27 27 27 27 27 26 25 20 20 20 19 19 20 19 19 19 19 19 19 19 19 19 19 19 19 19 19 19 19 19 18 18 18 18 19 19 19 19
22 23 22 25 29 28 27 28 28 28 27 26 26 26 27 25 23 21 20 19 19 19 19 19 20 19 19 19 19 19 19 19 19 19 19 19 19 19 19 18 18 18 18 18 18 18 18 18 18
23 23 24 28 28 28 28 28 28 28 26 27 26 26 26 24 22 21 20 19 19 19 19 19 20 19 19 19 19 19 19 19 19 19 19 19 19 19 18 18 18 18 18 18 18 18 18 18 18
22 23 26 29 28 28 28 29 28 28 27 26 26 26 24 22 22 21 20 19 19 19 18 19 19 19 19 19 19 19 19 19 19 19 19 19 18 18 18 18 18 18 18 18 18 18 18 18 18
23 26 28 28 28 28 29 29 28 28 28 27 26 26 24 21 21 20 20 20 19 19 19 19 19 19 19 19 19 19 19 19 19 19 18 18 18 18 18 18 18 18 18 18 18 18 18 18 18
25 28 29 28 28 28 29 28 28 28 28 27 26 26 24 21 21 20 20 20 20 19 19 18 19 19 19 19 19 19 19 18 18 18 18 18 18 18 18 18 18 18 18 18 18 18 18 18 18
26 28 28 28 28 28 29 28 29 29 28 27 26 27 24 22 21 20 20 20 20 19 19 18 18 19 19 19 19 19 18 18 18 18 18 18 18 18 18 18 18 18 18 18 18 18 18 18 18
25 28 28 28 28 28 28 28 28 28 28 26 26 27 25 23 21 20 20 20 20 19 19 19 18 18 18 18 19 18 18 18 18 18 18 18 18 18 18 18 18 18 18 18 18 18 18 17 17
24 28 28 28 28 28 28 28 27 26 27 26 26 26 25 23 21 20 20 20 20 19 19 19 18 18 18 18 18 18 18 18 18 18 18 18 17 17 17 16 18 18 18 18 18 18 17 17 17
26 28 27 27 28 28 28 28 28 28 28 27 26 24 23 22 21 21 21 21 20 20 19 19 18 18 18 17 17 18 18 18 17 17 17 17 17 17 17 17 18 18 18 18 18 17 17 17 17
27 27 27 26 26 26 27 27 27 28 28 28 27 25 23 22 22 22 22 22 21 20 20 19 19 18 18 18 18 18 18 18 17 17 17 17 17 17 17 17 17 17 17 17 17 17 17 17 17
27 26 26 26 25 26 27 27 27 27 26 26 26 25 24 23 23 23 22 22 21 21 20 19 19 19 18 18 18 18 18 18 17 17 17 17 17 17 17 17 17 16 16 16 17 17 17 17 17
27 27 26 25 25 25 26 26 26 25 24 25 25 25 25 24 24 23 23 22 22 21 20 20 19 19 19 18 18 18 18 18 18 17 17 17 17 17 17 17 16 17 17 17 17 17 17 17 17
26 26 26 25 25 25 26 26 26 24 24 24 25 25 25 25 24 24 23 23 22 22 21 20 20 19 19 19 18 18 18 17 18 17 17 17 17 17 17 17 17 17 17 17 17 17 17 17 17
25 26 26 26 26 26 26 26 25 23 23 24 24 24 23 24 24 24 24 23 23 22 22 21 20 20 19 19 18 18 18 18 17 17 17 17 17 17 17 17 17 17 17 17 17 17 17 17 17
26 26 26 26 26 25 26 26 24 22 23 23 23 23 22 22 22 23 23 23 23 22 22 21 20 20 19 19 19 18 18 18 18 17 17 17 17 17 17 17 17 17 17 17 17 17 17 17 17
26 26 26 26 26 26 26 25 23 21 22 22 22 21 21 21 21 21 21 22 22 22 22 21 21 20 20 19 19 18 18 18 18 17 17 17 17 17 17 17 17 17 17 17 17 17 17 17 17
25 25 25 25 25 25 25 24 23 21 21 21 21 21 21 21 20 20 20 21 21 22 22 22 21 21 20 20 19 19 18 18 18 17 17 17 17 17 17 17 17 17 17 16 16 17 17 17 16
24 24 24 25 24 24 24 24 23 21 21 21 20 20 20 19 19 19 19 20 21 21 22 22 21 21 20 20 20 19 19 18 18 18 17 17 17 17 17 17 17 17 17 16 16 16 16 16 16
24 24 24 24 24 24 24 24 23 21 20 19 19 19 19 18 19 19 19 19 20 21 21 21 21 21 20 20 20 20 19 18 18 18 18 17 17 17 17 17 17 17 17 16 16 16 16 16 16
23 23 23 22 23 23 23 23 22 21 20 20 19 18 18 17 17 17 18 18 19 20 20 21 21 21 20 20 20 19 19 18 18 18 17 17 17 17 17 17 17 17 17 16 16 16 16 16 16
22 22 21 22 22 23 23 23 23 21 21 20 19 18 17 17 17 17 17 17 18 19 19 20 20 20 19 19 19 19 19 18 18 17 17 17 17 17 17 17 17 17 17 17 16 16 16 16 16
21 21 21 21 22 22 23 22 22 21 19 19 18 17 17 16 16 16 16 16 17 18 18 19 19 19 19 18 18 18 18 17 17 16 17 17 17 17 17 17 17 17 17 17 16 16 16 16 16
20 21 21 21 21 21 22 22 20 18 17 17 17 17 16 16 16 15 15 15 16 17 17 18 18 18 18 17 17 17 17 17 16 16 16 16 17 17 17 17 17 17 17 17 16 16 16 16 16
20 20 20 20 20 20 21 20 17 16 17 16 16 16 15 15 15 15 15 15 15 16 16 16 17 17 17 17 16 16 16 16 16 16 16 16 16 16 17 17 17 17 17 16 16 16 16 16 16
19 19 18 17 18 18 19 18 16 16 16 15 15 15 15 14 14 14 14 14 15 15 15 16 16 16 16 16 16 16 16 16 16 16 16 16 16 16 16 16 16 16 16 16 16 16 16 16 15
18 18 18 17 17 17 17 17 16 16 16 15 14 14 14 14 14 14 14 14 14 14 15 15 15 15 15 15 16 16 16 16 16 16 16 16 16 16 16 16 16 16 16 16 16 16 16 15 15
17 17 17 17 16 16 17 15 14 13 14 14 14 13 13 13 13 13 13 14 14 14 14 15 15 15 15 15 15 15 16 16 16 16 16 16 16 16 16 16 16 16 16 16 16 16 15 15 15
16 16 16 16 16 15 15 14 13 12 12 12 12 12 12 12 13 13 13 13 14 14 14 14 15 15 15 15 15 15 16 16 16 16 16 16 16 16 16 16 16 16 16 16 16 15 15 15 15
16 15 15 15 16 16 15 13 13 12 11 11 11 11 12 12 12 13 13 13 13 14 14 14 15 15 15 15 15 15 16 16 16 16 16 16 16 16 16 16 16 15 15 15 15 15 15 15 15
Wind_Speed
4 2 2 3 2 6 10 6 4 5 5 5 5 3 3 3 3 3 6 13 14 17 17 18 16 16 16 16 15 14 14 14 14 13 13 12 11 10 9 9 9 9 8 7 7 7 7 7 7
3 2 3 3 3 8 9 5 5 5 5 4 3 3 3 4 5 6 9 12 15 16 16 17 17 16 16 15 15 14 14 14 13 13 12 11 10 10 9 9 9 9 8 8 7 7 7 7 7
2 3 3 1 5 8 9 6 5 5 3 2 3 4 3 4 4 7 10 15 15 15 15 16 16 16 15 15 14 14 14 14 13 13 12 11 10 9 9 8 9 9 9 8 8 7 7 6 6
3 3 2 3 8 6 4 4 2 4 2 2 2 4 4 4 3 7 14 15 15 14 14 16 16 15 15 14 14 14 14 14 13 12 11 11 10 9 8 8 8 8 9 8 8 8 7 6 5
2 3 3 6 6 4 2 2 1 1 2 3 3 4 5 4 5 11 14 14 15 14 14 16 15 15 14 14 14 14 14 13 13 12 12 11 9 8 8 8 8 8 8 8 8 7 7 7 6
2 2 4 6 6 3 3 1 2 0 1 1 1 3 4 6 8 12 13 13 13 14 13 15 16 14 14 14 13 13 14 13 13 12 12 11 9 8 8 7 7 7 7 7 7 7 7 7 7
2 1 4 5 5 4 3 1 1 2 2 1 1 2 5 8 9 12 12 12 12 13 13 13 16 15 14 13 13 13 13 13 13 12 12 11 10 9 8 7 7 7 7 6 6 6 6 6 7
2 2 4 4 4 3 2 1 1 2 2 3 0 2 3 10 12 12 11 11 12 12 12 12 13 14 14 15 14 13 13 13 12 12 12 11 10 9 8 8 7 6 6 6 6 6 6 6 7
3 3 4 3 3 3 2 1 1 0 2 2 1 2 4 13 14 12 11 11 11 11 11 11 11 11 12 12 14 14 13 12 13 13 12 12 11 11 10 7 8 6 6 6 6 6 5 6 9
2 2 2 2 1 2 2 1 0 2 2 2 2 3 8 14 14 14 13 13 13 13 13 12 11 11 11 10 11 11 12 13 13 12 13 11 8 7 6 12 7 6 7 7 6 5 6 6 7
1 1 3 2 2 2 1 1 0 2 2 3 3 5 11 15 15 14 14 13 13 13 13 12 12 11 10 9 9 9 9 10 11 11 11 9 8 7 7 8 10 9 9 7 8 7 4 4 4
0 2 1 1 2 2 2 1 1 2 5 8 6 5 13 16 17 16 14 13 12 12 13 12 12 12 12 10 8 8 8 8 8 10 11 9 7 6 7 6 7 7 6 5 5 3 4 3 4
1 0 1 2 3 3 3 1 1 5 9 8 5 4 12 15 15 15 13 13 13 13 13 13 13 13 12 11 8 8 8 8 9 9 9 10 7 7 7 6 6 7 6 7 5 5 4 4 3
2 3 3 3 3 1 2 1 1 6 10 8 4 1 7 10 12 12 13 13 13 13 13 13 13 13 13 11 10 9 9 8 9 9 10 11 9 7 7 7 7 7 7 6 5 5 4 3 3
3 5 4 1 2 1 3 2 4 9 9 8 6 3 3 5 8 11 11 12 13 12 13 13 13 14 14 13 12 9 9 10 9 9 11 12 10 9 8 7 7 8 8 8 5 5 4 4 4
4 5 5 0 2 2 5 4 7 9 8 8 8 7 5 4 6 8 10 11 12 13 13 13 12 14 14 13 11 9 10 10 9 10 11 12 12 11 8 7 7 8 8 6 5 5 5 4 5
4 6 6 3 0 3 4 3 5 8 8 8 9 8 8 7 7 7 9 11 12 14 14 14 15 16 15 14 11 10 9 9 9 10 10 12 13 12 10 7 7 9 7 6 6 6 5 5 5
5 7 7 6 2 5 5 3 3 6 8 9 10 10 10 11 10 10 10 11 12 14 16 17 16 17 15 12 11 9 9 8 8 9 10 12 12 12 10 7 9 9 7 7 7 6 5 4 5
6 8 9 7 4 6 7 5 1 4 8 10 11 12 13 14 13 12 11 10 10 13 16 17 17 17 14 12 11 10 9 8 7 7 10 12 12 12 11 8 9 8 8 8 8 7 7 6 6
7 9 10 7 4 7 8 7 1 4 7 10 12 14 15 17 17 16 14 11 9 10 13 16 17 16 15 12 9 6 6 5 5 5 8 11 12 12 10 10 8 8 7 8 9 8 7 6 6
7 8 10 11 9 7 9 10 6 2 4 9 12 14 15 16 18 17 16 13 10 9 10 11 13 13 13 12 8 7 5 3 3 4 6 8 11 11 11 10 9 9 10 9 10 10 10 8 8
8 8 11 12 11 11 8 11 4 1 4 11 15 16 17 17 17 16 16 15 12 9 7 7 8 10 11 12 11 11 7 5 3 2 3 6 9 10 10 10 10 10 9 10 10 11 9 9 8
9 12 12 12 13 14 12 12 5 3 8 14 17 17 18 17 17 16 15 14 12 9 5 1 3 6 9 10 12 11 8 5 2 1 3 5 5 7 9 9 9 10 9 11 11 11 11 9 9
11 12 11 10 10 13 11 11 3 6 11 15 17 18 18 17 16 14 13 12 11 10 7 5 5 6 8 9 9 10 11 9 6 3 3 4 4 6 8 9 9 10 10 10 10 11 12 11 11
12 10 6 5 5 6 4 4 4 9 12 14 16 17 17 16 15 13 13 12 11 11 9 7 8 8 8 9 9 9 9 9 8 6 5 5 5 5 7 8 9 9 9 9 9 10 11 12 12
9 8 5 6 6 6 3 1 5 10 12 14 15 16 16 15 14 12 11 10 10 11 10 9 8 8 8 7 7 6 7 5 5 6 6 6 5 5 6 8 8 8 8 8 8 8 9 9 11
7 7 5 6 6 5 2 3 3 15 18 19 19 18 17 15 13 11 10 9 9 10 10 9 8 7 6 5 5 5 5 6 6 6 6 5 5 5 6 7 7 7 7 7 7 7 8 8 9
7 6 4 4 4 3 2 4 8 18 20 20 19 19 17 14 12 10 9 9 8 9 9 9 8 7 6 5 3 2 3 4 5 5 5 5 5 5 6 7 7 7 7 7 6 6 6 7 6
9 6 5 3 3 4 3 3 8 14 16 17 17 16 15 13 11 10 9 8 8 9 9 9 8 8 6 4 3 2 2 3 4 4 4 4 5 6 7 7 6 6 6 6 6 6 6 7 7
7 8 6 4 3 3 2 3 7 11 13 14 15 15 14 13 12 10 10 10 10 10 10 10 9 8 6 4 3 2 0 1 3 4 4 5 5 6 6 6 6 6 6 6 6 6 6 7 6
Wind_Direction
251 242 228 241 196 85 73 73 67 68 61 61 57 46 31 22 351 55 119 151 145 149 148 151 150 149 148 147 147 145 144 142 140 137 133 130 127 123 117 110 106 103 99 99 102 108 112 110 110
298 248 245 253 91 86 78 71 69 59 84 88 70 47 49 62 50 100 137 148 150 150 152 152 151 152 151 151 150 149 147 145 144 141 138 135 131 127 121 114 109 104 99 96 95 99 103 106 109
245 251 277 96 73 72 77 66 73 93 90 22 51 41 34 53 96 126 140 150 153 152 154 147 154 155 154 154 153 151 151 150 149 147 144 140 136 131 124 118 109 102 96 92 88 90 93 98 106
250 242 239 108 87 71 57 69 103 129 96 40 32 68 75 69 103 127 141 154 154 156 157 151 159 157 157 156 157 155 155 156 155 153 150 145 141 135 128 121 112 103 96 90 84 84 85 88 95
255 260 151 113 95 82 62 52 143 128 37 42 31 60 92 94 110 134 149 157 159 160 159 156 162 160 160 160 160 160 160 160 159 158 156 152 147 141 133 124 115 106 98 90 84 84 82 80 83
258 239 152 119 103 93 88 117 181 299 24 77 43 63 93 121 142 150 155 163 164 163 165 160 164 166 166 165 164 164 165 166 166 164 162 158 154 147 140 130 120 109 100 92 87 85 82 80 83
291 206 144 131 127 111 66 37 251 344 360 50 39 61 115 145 152 158 161 166 167 168 171 170 170 173 173 172 171 171 171 172 172 169 167 163 158 153 147 138 128 117 108 99 93 89 85 84 90
317 204 158 155 146 107 57 143 5 313 34 91 202 23 130 155 157 162 164 169 172 175 178 179 177 179 178 178 178 178 177 177 174 171 169 164 162 161 155 159 136 128 117 105 98 97 92 93 97
286 228 181 157 156 107 63 148 107 123 132 151 171 20 110 146 158 166 170 177 179 183 185 186 183 185 184 182 174 181 182 181 177 175 172 178 181 172 173 139 131 137 125 113 106 106 105 120 116
282 226 123 79 66 70 53 27 107 201 197 187 166 139 147 159 171 179 183 186 186 189 191 190 192 187 189 187 180 187 186 183 191 182 178 189 183 172 157 124 147 144 135 133 119 131 168 201 142
317 46 96 89 37 354 6 39 53 285 322 344 294 190 174 179 186 192 194 193 192 192 192 196 194 194 193 190 190 187 188 186 195 188 180 186 179 169 171 164 165 166 172 160 147 183 162 155 120
288 81 62 46 12 326 338 339 337 349 348 342 314 223 189 194 197 200 201 198 195 196 195 198 199 196 199 197 195 195 190 189 191 192 187 182 186 187 174 183 170 172 172 159 170 152 142 147 152
265 46 20 340 313 308 303 317 7 30 354 339 331 213 201 205 207 206 207 205 203 201 200 203 201 202 201 201 199 201 200 196 192 190 194 188 187 191 179 182 177 185 169 173 175 177 154 163 145
340 307 303 310 310 326 320 26 81 11 354 0 6 244 218 219 220 215 212 214 213 210 206 204 205 206 205 201 202 203 199 199 200 190 200 194 191 194 185 188 181 184 182 178 185 181 174 179 159
294 282 268 274 312 353 289 183 44 4 356 10 12 8 302 251 238 236 231 228 225 221 217 209 208 208 208 208 206 205 203 199 201 196 202 199 195 196 191 194 184 186 186 184 191 179 194 183 171
264 260 256 142 346 338 285 254 41 13 12 16 10 7 348 313 276 260 255 249 240 233 227 217 210 212 209 208 205 206 206 203 202 200 204 204 199 200 194 197 194 191 188 191 186 197 197 183 189
245 267 276 275 44 324 298 281 42 25 23 22 13 3 353 341 328 310 289 270 256 243 234 224 215 214 211 206 203 208 206 204 207 204 204 208 205 203 197 200 201 193 193 199 200 199 207 189 191
294 289 283 285 327 310 287 277 35 35 29 22 13 4 356 348 339 326 309 295 275 253 239 230 221 216 207 201 203 201 207 205 210 211 211 211 210 209 203 201 207 198 199 202 207 201 209 203 198
298 286 284 293 319 296 280 275 331 45 34 22 13 4 357 349 343 339 326 304 284 262 245 233 226 216 204 197 197 196 198 202 211 218 221 217 216 212 210 209 210 203 206 208 214 206 205 208 205
293 287 289 290 308 291 281 272 182 69 43 25 11 4 357 349 347 346 339 325 299 275 253 240 227 216 204 197 188 183 179 192 206 223 234 228 226 221 218 213 212 211 213 214 218 211 210 209 206
305 309 308 302 300 264 275 258 197 121 45 24 15 6 359 353 347 344 341 335 318 294 269 246 229 210 196 181 166 151 147 150 182 212 233 238 235 228 224 224 219 217 214 215 214 210 212 212 214
309 339 312 296 283 272 260 275 229 57 19 12 7 2 357 352 348 346 344 342 336 322 299 257 219 202 187 173 166 163 168 174 195 223 246 249 241 234 229 229 224 220 218 221 219 216 217 215 215
328 317 299 285 274 271 257 262 258 44 4 359 357 355 353 351 348 351 353 351 354 353 351 333 169 168 167 168 169 162 156 151 150 208 256 257 245 238 232 228 224 222 222 226 223 216 216 215 216
327 303 278 258 262 259 263 257 273 30 360 350 350 351 351 350 350 356 2 6 14 23 30 54 98 122 141 148 149 149 147 147 155 193 233 251 240 233 230 228 227 224 224 225 224 219 216 218 221
352 335 304 274 256 270 315 274 64 28 6 354 348 349 351 352 354 358 6 13 20 30 38 60 85 97 113 127 133 140 148 157 166 186 215 231 233 225 227 225 226 225 223 223 220 218 220 220 223
353 352 336 310 308 312 316 351 82 20 3 357 355 353 354 356 357 1 9 16 24 35 39 51 72 88 99 111 123 139 154 167 176 193 210 215 218 219 215 220 221 217 216 215 215 220 222 225 225
351 3 340 299 296 294 325 58 56 5 0 359 357 356 355 352 353 2 12 22 27 37 41 47 58 71 85 100 117 140 160 172 178 190 200 199 201 203 202 206 204 200 203 208 206 214 217 224 226
12 346 330 325 320 307 336 27 0 353 350 349 352 351 351 350 354 6 21 28 29 35 39 43 49 57 69 74 92 128 151 162 173 186 192 192 189 191 189 192 187 185 187 192 197 207 209 217 221
11 9 348 314 311 320 337 37 9 347 342 344 347 349 353 360 4 16 25 28 27 25 26 29 40 46 49 53 59 80 122 161 176 180 187 189 186 189 187 183 180 177 178 182 184 195 195 208 215
19 8 350 346 354 338 338 28 6 350 349 353 354 357 3 9 15 25 31 34 35 29 21 21 31 33 29 26 24 24 36 185 194 183 182 185 184 186 183 176 175 170 173 178 183 188 193 203 209
Height
1511 1510 1509 1511 1509 1508 1515 1512 1509 1509 1508 1511 1512 1511 1510 1511 1514 1522 1523 1524 1526 1528 1530 1532 1534 1537 1538 1540 1542 1543 1544 1545 1546 1547 1548 1549 1550 1550 1551 1551 1551 1552 1552 1552 1552 1553 1553 1553 1554
1512 1511 1512 1511 1507 1517 1519 1511 1510 1510 1512 1514 1514 1513 1513 1515 1519 1521 1522 1524 1527 1529 1532 1534 1535 1537 1539 1541 1542 1544 1545 1546 1547 1548 1549 1550 1551 1551 1552 1552 1552 1552 1553 1553 1553 1553 1554 1554 1555
1512 1511 1514 1508 1510 1515 1517 1511 1510 1512 1514 1514 1514 1515 1516 1519 1521 1522 1523 1525 1528 1531 1533 1534 1536 1538 1540 1541 1543 1544 1545 1547 1548 1549 1550 1551 1551 1552 1552 1553 1553 1553 1553 1554 1554 1554 1555 1555 1555
1513 1514 1513 1508 1515 1513 1512 1510 1512 1513 1515 1515 1515 1516 1519 1522 1523 1524 1524 1526 1529 1532 1534 1535 1536 1539 1540 1542 1543 1545 1546 1547 1548 1549 1550 1551 1552 1553 1553 1553 1553 1554 1554 1554 1554 1555 1555 1556 1556
1514 1513 1510 1512 1514 1512 1511 1512 1513 1513 1514 1516 1516 1516 1520 1523 1523 1524 1525 1528 1530 1532 1534 1535 1537 1539 1541 1542 1544 1545 1546 1548 1549 1550 1551 1552 1552 1553 1553 1554 1554 1554 1554 1555 1555 1555 1556 1556 1557
1515 1511 1512 1516 1515 1512 1511 1513 1513 1513 1514 1517 1517 1517 1521 1523 1523 1525 1527 1529 1531 1533 1535 1536 1537 1539 1541 1542 1544 1545 1546 1548 1549 1550 1551 1552 1553 1553 1554 1554 1554 1554 1555 1555 1556 1556 1556 1557 1557
1515 1510 1512 1514 1516 1513 1513 1514 1513 1513 1514 1516 1518 1517 1521 1523 1524 1526 1528 1530 1532 1534 1535 1537 1538 1539 1540 1542 1544 1545 1546 1548 1549 1550 1551 1552 1553 1553 1554 1554 1554 1555 1555 1556 1556 1557 1557 1558 1558
1516 1512 1513 1513 1516 1515 1515 1515 1515 1515 1515 1518 1519 1517 1520 1523 1524 1526 1528 1530 1532 1534 1535 1537 1539 1540 1541 1542 1543 1544 1546 1547 1548 1549 1551 1551 1552 1553 1554 1554 1554 1555 1555 1556 1556 1557 1558 1558 1559
1517 1514 1515 1514 1515 1515 1516 1515 1516 1517 1517 1518 1519 1520 1521 1522 1524 1526 1528 1529 1531 1533 1535 1536 1538 1539 1541 1542 1542 1544 1545 1546 1547 1549 1550 1551 1553 1554 1554 1555 1554 1555 1555 1556 1557 1558 1559 1559 1560
1516 1514 1515 1515 1515 1515 1516 1516 1516 1516 1516 1518 1519 1520 1521 1522 1523 1525 1527 1528 1530 1531 1534 1535 1537 1538 1540 1541 1542 1543 1545 1545 1547 1549 1549 1551 1553 1555 1555 1553 1554 1555 1556 1557 1557 1558 1559 1561 1562
1515 1515 1516 1517 1518 1518 1516 1516 1517 1516 1515 1517 1518 1520 1520 1521 1522 1524 1526 1527 1529 1531 1532 1534 1536 1537 1539 1540 1542 1542 1544 1545 1547 1549 1549 1551 1552 1553 1554 1555 1555 1556 1557 1559 1558 1560 1562 1563 1563
1516 1517 1518 1518 1519 1518 1517 1516 1517 1518 1518 1518 1518 1518 1519 1520 1521 1523 1524 1526 1528 1530 1531 1533 1534 1536 1537 1539 1540 1542 1543 1544 1546 1547 1549 1550 1551 1553 1554 1555 1556 1557 1558 1559 1561 1561 1562 1563 1563
1516 1517 1518 1518 1518 1518 1517 1517 1517 1519 1519 1518 1517 1516 1518 1519 1521 1522 1524 1526 1527 1529 1530 1531 1532 1534 1536 1538 1538 1540 1541 1543 1545 1545 1548 1549 1550 1552 1553 1554 1555 1557 1558 1559 1560 1561 1562 1563 1563
1518 1518 1518 1518 1517 1517 1517 1517 1518 1520 1519 1517 1516 1516 1517 1519 1521 1522 1523 1525 1526 1527 1529 1530 1531 1532 1534 1536 1537 1538 1540 1540 1543 1544 1546 1548 1549 1550 1551 1553 1553 1556 1557 1559 1560 1561 1562 1563 1563
1519 1517 1516 1516 1516 1516 1516 1516 1520 1521 1519 1518 1517 1516 1517 1518 1519 1521 1522 1523 1525 1526 1527 1528 1529 1531 1532 1534 1535 1537 1538 1539 1541 1542 1544 1546 1547 1549 1550 1552 1553 1554 1556 1558 1559 1560 1561 1562 1562
1516 1516 1517 1515 1516 1516 1517 1517 1521 1522 1520 1519 1518 1517 1517 1517 1518 1519 1520 1521 1522 1523 1525 1526 1526 1528 1529 1531 1532 1534 1535 1537 1538 1540 1542 1544 1546 1547 1549 1550 1551 1553 1555 1556 1557 1559 1560 1561 1562
1515 1517 1518 1516 1515 1515 1515 1517 1522 1522 1521 1520 1519 1518 1517 1516 1516 1516 1516 1517 1518 1519 1520 1522 1523 1524 1526 1528 1529 1531 1533 1534 1536 1538 1540 1542 1544 1545 1546 1548 1550 1552 1553 1554 1556 1558 1559 1560 1560
1521 1519 1518 1517 1515 1516 1516 1517 1521 1522 1522 1520 1519 1518 1516 1515 1514 1513 1512 1511 1512 1513 1515 1517 1519 1520 1522 1524 1526 1527 1530 1531 1533 1535 1537 1539 1541 1543 1545 1545 1547 1549 1551 1552 1554 1556 1557 1558 1559
1520 1520 1520 1517 1516 1517 1515 1516 1519 1522 1522 1521 1519 1518 1516 1514 1513 1510 1508 1507 1506 1507 1509 1511 1513 1515 1517 1518 1520 1523 1525 1528 1530 1532 1534 1536 1538 1539 1541 1543 1545 1546 1548 1549 1552 1553 1555 1556 1558
1521 1521 1519 1516 1517 1517 1514 1514 1518 1521 1522 1523 1521 1519 1516 1513 1509 1506 1504 1502 1501 1501 1502 1504 1506 1509 1511 1513 1515 1518 1521 1524 1526 1529 1531 1533 1534 1536 1538 1540 1541 1543 1545 1546 1548 1550 1552 1553 1555
1522 1524 1523 1522 1518 1516 1515 1513 1515 1519 1522 1522 1521 1520 1517 1513 1509 1504 1501 1498 1496 1496 1496 1497 1500 1502 1505 1507 1510 1513 1517 1519 1522 1525 1527 1529 1531 1533 1535 1536 1538 1539 1541 1542 1544 1546 1548 1549 1551
1525 1526 1526 1523 1521 1515 1515 1518 1511 1516 1519 1521 1521 1519 1516 1513 1508 1504 1500 1496 1493 1492 1491 1492 1493 1496 1499 1501 1504 1508 1511 1514 1518 1520 1522 1524 1527 1529 1531 1532 1534 1535 1537 1538 1540 1542 1543 1545 1547
1530 1528 1524 1521 1518 1516 1512 1516 1511 1516 1521 1522 1522 1520 1517 1513 1509 1504 1500 1496 1492 1489 1488 1488 1490 1492 1495 1497 1500 1502 1506 1510 1513 1516 1519 1520 1523 1525 1526 1528 1529 1531 1532 1533 1535 1537 1538 1540 1542
1531 1524 1518 1516 1515 1520 1511 1514 1520 1526 1530 1527 1524 1521 1517 1513 1509 1505 1501 1496 1493 1490 1488 1488 1488 1490 1492 1494 1497 1499 1502 1505 1508 1512 1516 1517 1519 1521 1523 1524 1526 1527 1528 1529 1531 1532 1534 1536 1537
1531 1528 1525 1523 1523 1521 1513 1518 1533 1534 1533 1531 1527 1522 1518 1514 1510 1505 1501 1498 1495 1492 1490 1489 1489 1490 1491 1493 1496 1498 1500 1503 1505 1509 1512 1514 1516 1518 1519 1521 1522 1523 1524 1526 1527 1528 1530 1532 1533
1537 1535 1541 1543 1537 1529 1522 1528 1538 1536 1535 1532 1528 1524 1519 1515 1511 1507 1503 1500 1498 1495 1493 1492 1492 1492 1493 1494 1496 1498 1501 1503 1504 1507 1511 1512 1514 1515 1517 1518 1519 1520 1521 1522 1524 1525 1526 1528 1529
1541 1540 1541 1541 1537 1537 1531 1533 1536 1535 1533 1531 1527 1523 1519 1515 1512 1508 1505 1502 1500 1498 1496 1496 1495 1495 1495 1496 1497 1500 1501 1503 1504 1506 1509 1510 1512 1513 1515 1516 1517 1518 1519 1520 1521 1522 1523 1525 1526
1547 1545 1542 1543 1545 1542 1538 1542 1548 1542 1538 1534 1530 1526 1521 1516 1512 1509 1506 1504 1503 1501 1500 1498 1498 1497 1497 1498 1499 1500 1501 1503 1504 1506 1507 1509 1510 1512 1514 1514 1516 1516 1517 1518 1519 1520 1521 1522 1523
1550 1549 1547 1545 1545 1549 1547 1554 1554 1551 1546 1540 1534 1529 1523 1518 1514 1511 1508 1507 1505 1504 1502 1501 1500 1500 1500 1500 1501 1502 1502 1503 1504 1505 1507 1508 1510 1511 1512 1514 1515 1516 1516 1517 1517 1518 1519 1520 1520
1555 1554 1551 1551 1548 1546 1551 1561 1555 1553 1548 1543 1537 1531 1525 1521 1517 1513 1511 1509 1508 1506 1505 1504 1502 1502 1502 1502 1502 1503 1503 1504 1505 1505 1507 1508 1510 1511 1512 1513 1514 1515 1515 1516 1516 1517 1517 1518 1518